This is the latest recevied weather packets stored in our database for station/object HB9DDE-10. If no packets are shown the sender has not sent any weather packets the latest 10 day(s).
| Time | Temp. | Humidity | Pressure | Rain* | Wind** | Luminosity | Snow |
|---|---|---|---|---|---|---|---|
| 1777741422 | 27.78° C | 34% | 1017.4 hPa | 0 mm | - | - | - |
| 1777741129 | 27.78° C | 33% | 1017.4 hPa | 0 mm | - | - | - |
| 1777740819 | 27.78° C | 34% | 1017.5 hPa | 0 mm | - | - | - |
| 1777740528 | 27.78° C | 35% | 1017.5 hPa | 0 mm | - | - | - |
| 1777740221 | 27.22° C | 33% | 1017.5 hPa | 0 mm | - | - | - |
| 1777739621 | 27.78° C | 32% | 1017.6 hPa | 0 mm | - | - | - |
| 1777739331 | 27.78° C | 32% | 1017.6 hPa | 0 mm | - | - | - |
| 1777738731 | 28.33° C | 31% | 1017.7 hPa | 0 mm | - | - | - |
| 1777738421 | 27.78° C | 32% | 1017.8 hPa | 0 mm | - | - | - |
| 1777738130 | 28.33° C | 32% | 1017.9 hPa | 0 mm | - | - | - |
| 1777737841 | 28.89° C | 30% | 1018 hPa | 0 mm | - | - | - |
| 1777737513 | 29.44° C | 33% | 1018 hPa | 0 mm | - | - | - |
| 1777737226 | 28.33° C | 33% | 1018.1 hPa | 0 mm | - | - | - |
| 1777736914 | 27.78° C | 33% | 1018.1 hPa | 0 mm | - | - | - |
| 1777736626 | 27.78° C | 32% | 1018.1 hPa | 0 mm | - | - | - |
| 1777736315 | 28.33° C | 32% | 1018.1 hPa | 0 mm | - | - | - |
| 1777736025 | 28.89° C | 30% | 1018.2 hPa | 0 mm | - | - | - |
| 1777735715 | 30° C | 29% | 1018.2 hPa | 0 mm | - | - | - |
| 1777735122 | 30° C | 31% | 1018.3 hPa | 0 mm | - | - | - |
| 1777734828 | 29.44° C | 31% | 1018.3 hPa | 0 mm | - | - | - |
| 1777734521 | 28.89° C | 32% | 1018.4 hPa | 0 mm | - | - | - |
| 1777734231 | 28.33° C | 34% | 1018.4 hPa | 0 mm | - | - | - |
| 1777733940 | 27.78° C | 35% | 1018.5 hPa | 0 mm | - | - | - |
| 1777733629 | 28.33° C | 35% | 1018.6 hPa | 0 mm | - | - | - |
| 1777733318 | 27.22° C | 34% | 1018.6 hPa | 0 mm | - | - | - |
* Rain latest hour (hover to see other rain measurements)
** Current wind speed in m/s (hover to see current wind gust speed)